Location: Walton
(43.6794°N, 81.3017°W)
Time: 14:41:33
(UTC+00:00)

Cosmos 2263 Rocket - Pass Details

Date: 09 December 2025
Orbit: 821 x 849 km, 71.0° (Epoch: 19 January)

Event Time Altitude Azimuth Distance (km) Brightness Sun altitude
Rises 00:16:47 0° 334° (NNW) 3,406 5.6 -26.0°
Reaches altitude 10° 00:19:14 10° 335° (NNW) 2,471 4.8 -26.5°
Maximum altitude 00:24:56 89° 64° (ENE) 853 2.1 -27.5°
Enters shadow 00:25:13 82° 146° (SE) 860 2.1 -27.5°
